TimeCDT,TemperatureF,Dew PointF,Humidity,Sea Level PressureIn,VisibilityMPH,Wind Direction,Wind SpeedMPH,Gust SpeedMPH,PrecipitationIn,Events,Conditions,WindDirDegrees,DateUTC
12:15 AM,35.6,33.8,93,30.00,10.0,NW,3.5,-,N/A,,Clear,320,2013-03-19 05:15:00
12:35 AM,35.6,32.0,87,30.00,10.0,West,5.8,-,N/A,,Clear,280,2013-03-19 05:35:00
12:55 AM,37.4,32.0,81,30.01,10.0,West,9.2,-,N/A,,Clear,280,2013-03-19 05:55:00
1:15 AM,37.4,30.2,75,30.02,10.0,WNW,8.1,-,N/A,,Clear,290,2013-03-19 06:15:00
1:35 AM,37.4,28.4,70,30.03,10.0,WNW,6.9,-,N/A,,Clear,300,2013-03-19 06:35:00
1:55 AM,37.4,28.4,70,30.04,10.0,NW,8.1,-,N/A,,Clear,320,2013-03-19 06:55:00
2:15 AM,35.6,28.4,75,30.05,10.0,NNW,8.1,-,N/A,,Clear,330,2013-03-19 07:15:00
2:35 AM,35.6,26.6,70,30.06,10.0,NW,8.1,-,N/A,,Clear,320,2013-03-19 07:35:00
2:55 AM,33.8,28.4,81,30.06,10.0,NW,4.6,-,N/A,,Clear,320,2013-03-19 07:55:00
3:15 AM,33.8,26.6,75,30.06,10.0,NW,6.9,-,N/A,,Clear,320,2013-03-19 08:15:00
3:35 AM,33.8,26.6,75,30.06,10.0,NNW,4.6,-,N/A,,Clear,330,2013-03-19 08:35:00
3:55 AM,32.0,26.6,80,30.07,10.0,NNW,5.8,-,N/A,,Clear,330,2013-03-19 08:55:00
4:15 AM,32.0,26.6,80,30.08,10.0,NW,8.1,-,N/A,,Clear,310,2013-03-19 09:15:00
4:35 AM,32.0,23.0,69,30.07,10.0,NW,5.8,-,N/A,,Clear,320,2013-03-19 09:35:00
4:55 AM,32.0,23.0,69,30.07,10.0,NNW,5.8,-,N/A,,Clear,330,2013-03-19 09:55:00
5:15 AM,32.0,23.0,69,30.08,10.0,WNW,3.5,-,N/A,,Clear,290,2013-03-19 10:15:00
5:35 AM,32.0,23.0,69,30.08,10.0,Calm,Calm,-,N/A,,Clear,0,2013-03-19 10:35:00
5:55 AM,32.0,24.8,75,30.08,10.0,SW,4.6,-,N/A,,Clear,220,2013-03-19 10:55:00
6:15 AM,30.2,26.6,86,30.09,10.0,SW,3.5,-,N/A,,Clear,220,2013-03-19 11:15:00
6:35 AM,30.2,24.8,80,30.11,10.0,SW,5.8,-,N/A,,Clear,230,2013-03-19 11:35:00
6:55 AM,30.2,24.8,80,30.12,10.0,WSW,4.6,-,N/A,,Clear,240,2013-03-19 11:55:00
7:15 AM,32.0,23.0,69,30.13,10.0,WSW,5.8,-,N/A,,Clear,240,2013-03-19 12:15:00
7:35 AM,32.0,23.0,69,30.14,10.0,WSW,5.8,-,N/A,,Clear,250,2013-03-19 12:35:00
7:55 AM,32.0,23.0,69,30.14,10.0,WSW,5.8,-,N/A,,Clear,250,2013-03-19 12:55:00
8:15 AM,33.8,23.0,65,30.14,10.0,West,9.2,-,N/A,,Clear,280,2013-03-19 13:15:00
8:35 AM,33.8,23.0,65,30.15,10.0,West,9.2,-,N/A,,Clear,280,2013-03-19 13:35:00
8:55 AM,35.6,23.0,60,30.13,10.0,WNW,11.5,-,N/A,,Clear,290,2013-03-19 13:55:00
9:15 AM,35.6,23.0,60,30.15,10.0,West,13.8,-,N/A,,Clear,280,2013-03-19 14:15:00
9:35 AM,35.6,21.2,56,30.16,10.0,WNW,16.1,21.9,N/A,,Clear,290,2013-03-19 14:35:00
9:55 AM,37.4,21.2,52,30.18,10.0,WNW,13.8,23.0,N/A,,Clear,300,2013-03-19 14:55:00
10:15 AM,37.4,19.4,48,30.18,10.0,NW,15.0,21.9,N/A,,Clear,310,2013-03-19 15:15:00
10:35 AM,41.0,21.2,45,30.20,10.0,WNW,13.8,20.7,N/A,,Clear,290,2013-03-19 15:35:00
10:55 AM,41.0,21.2,45,30.20,10.0,WNW,13.8,-,N/A,,Clear,300,2013-03-19 15:55:00
11:15 AM,41.0,21.2,45,30.20,10.0,WNW,17.3,-,N/A,,Clear,300,2013-03-19 16:15:00
11:35 AM,42.8,21.2,42,30.21,10.0,WNW,13.8,-,N/A,,Clear,300,2013-03-19 16:35:00
11:55 AM,42.8,23.0,46,30.21,10.0,West,15.0,-,N/A,,Clear,280,2013-03-19 16:55:00
12:15 PM,42.8,21.2,42,30.21,10.0,WNW,10.4,16.1,N/A,,Clear,290,2013-03-19 17:15:00
12:35 PM,44.6,21.2,39,30.21,10.0,NW,13.8,23.0,N/A,,Clear,320,2013-03-19 17:35:00
12:55 PM,44.6,21.2,39,30.21,10.0,NW,11.5,18.4,N/A,,Clear,310,2013-03-19 17:55:00
1:15 PM,44.6,19.4,37,30.21,10.0,NW,16.1,20.7,N/A,,Clear,320,2013-03-19 18:15:00
1:35 PM,44.6,21.2,39,30.21,10.0,NW,16.1,21.9,N/A,,Clear,310,2013-03-19 18:35:00
1:55 PM,44.6,21.2,39,30.21,10.0,NW,15.0,20.7,N/A,,Clear,310,2013-03-19 18:55:00
2:15 PM,46.4,21.2,37,30.20,10.0,NW,11.5,-,N/A,,Clear,320,2013-03-19 19:15:00
2:35 PM,46.4,21.2,37,30.20,10.0,WNW,11.5,-,N/A,,Clear,300,2013-03-19 19:35:00
2:55 PM,46.4,19.4,34,30.20,10.0,NNW,8.1,18.4,N/A,,Clear,330,2013-03-19 19:55:00
3:15 PM,46.4,19.4,34,30.20,10.0,NW,11.5,-,N/A,,Clear,310,2013-03-19 20:15:00
3:35 PM,46.4,19.4,34,30.19,10.0,NNW,6.9,-,N/A,,Clear,330,2013-03-19 20:35:00
3:55 PM,46.4,21.2,37,30.19,10.0,NW,11.5,-,N/A,,Clear,320,2013-03-19 20:55:00
4:15 PM,46.4,17.6,32,30.19,10.0,NNW,8.1,-,N/A,,Clear,340,2013-03-19 21:15:00
4:35 PM,46.4,19.4,34,30.20,10.0,WNW,8.1,-,N/A,,Clear,300,2013-03-19 21:35:00
4:55 PM,46.4,19.4,34,30.20,10.0,NW,3.5,-,N/A,,Clear,320,2013-03-19 21:55:00
5:15 PM,46.4,19.4,34,30.20,10.0,NW,5.8,-,N/A,,Scattered Clouds,310,2013-03-19 22:15:00
5:35 PM,46.4,19.4,34,30.20,10.0,NW,5.8,-,N/A,,Scattered Clouds,320,2013-03-19 22:35:00
5:55 PM,44.6,19.4,37,30.21,10.0,WNW,5.8,-,N/A,,Mostly Cloudy,300,2013-03-19 22:55:00
6:15 PM,44.6,21.2,39,30.21,10.0,WNW,6.9,-,N/A,,Overcast,300,2013-03-19 23:15:00
6:35 PM,44.6,21.2,39,30.21,10.0,WNW,5.8,-,N/A,,Overcast,300,2013-03-19 23:35:00
6:55 PM,42.8,21.2,42,30.21,10.0,WNW,3.5,-,N/A,,Mostly Cloudy,300,2013-03-19 23:55:00
7:15 PM,42.8,17.6,36,30.21,10.0,Calm,Calm,-,N/A,,Mostly Cloudy,0,2013-03-20 00:15:00
7:35 PM,42.8,21.2,42,30.21,10.0,Calm,Calm,-,N/A,,Mostly Cloudy,0,2013-03-20 00:35:00
7:55 PM,41.0,21.2,45,30.21,10.0,Calm,Calm,-,N/A,,Scattered Clouds,0,2013-03-20 00:55:00
8:15 PM,41.0,28.4,61,30.21,10.0,Calm,Calm,-,N/A,,Scattered Clouds,0,2013-03-20 01:15:00
8:35 PM,41.0,28.4,61,30.21,10.0,Calm,Calm,-,N/A,,Clear,0,2013-03-20 01:35:00
8:55 PM,37.4,28.4,70,30.21,10.0,Calm,Calm,-,N/A,,Mostly Cloudy,0,2013-03-20 01:55:00
9:15 PM,35.6,30.2,81,30.21,10.0,Calm,Calm,-,N/A,,Mostly Cloudy,0,2013-03-20 02:15:00
9:35 PM,35.6,28.4,75,30.20,10.0,Calm,Calm,-,N/A,,Scattered Clouds,0,2013-03-20 02:35:00
9:55 PM,35.6,26.6,70,30.20,10.0,Calm,Calm,-,N/A,,Clear,0,2013-03-20 02:55:00
10:15 PM,35.6,28.4,75,30.20,10.0,Calm,Calm,-,N/A,,Clear,0,2013-03-20 03:15:00
10:35 PM,35.6,28.4,75,30.20,10.0,Calm,Calm,-,N/A,,Clear,0,2013-03-20 03:35:00
10:55 PM,33.8,28.4,81,30.20,10.0,Calm,Calm,-,N/A,,Clear,0,2013-03-20 03:55:00
11:15 PM,33.8,28.4,81,30.20,10.0,Calm,Calm,-,N/A,,Clear,0,2013-03-20 04:15:00
11:35 PM,32.0,28.4,87,30.20,10.0,Calm,Calm,-,N/A,,Clear,0,2013-03-20 04:35:00
11:55 PM,32.0,28.4,87,30.19,10.0,Calm,Calm,-,N/A,,Clear,0,2013-03-20 04:55:00